Regional Weather Roundup
Issued by NWS Sterling, VA

Home | Current Version | Previous Version | Graphics & Text | Print | Product List | Glossary On
Versions: 1 2 3 4 5 6 7 8 9 10 11 12 13 14 15 16 17 18 19 20 21 22 23 24 25 26 27
000
ASUS41 KLWX 041910
RWRLWX

REGIONAL WEATHER ROUNDUP
NATIONAL WEATHER SERVICE BALTIMORE MD/WASHINGTON DC
300 PM EDT WED MAY 04 2016

Note: "FAIR" indicates few or no clouds below 12,000 feet
with no significant weather and/or obstructions to visibility.
 TC=TEMPERATURE CELSIUS

 * =Non NWS site. Station does not report precipitation (e.g. rain,
    snow, etc.), thunder, or fog.

DCZ001-MDZ009-015-VAZ040>042-051-053>054-042000-
WASHINGTON METRO

CITY           SKY/WX    TMP DP  RH WIND       PRES   REMARKS
WASHINGTON NAT CLOUDY    59  53  80 NE8       29.67F
DULLES         PTSUNNY   59  52  77 VRB5      29.67S
ANDREWS AFB    CLOUDY    57  52  84 E6        29.66F
FT BELVOIR     CLOUDY    60  52  75 CALM      29.66F
QUANTICO       PTSUNNY   62  54  74 NE7       29.66F
COLLEGE PARK*  CLOUDY    57  52  82 NE3       29.67F
LEESBURG*      CLOUDY    63  55  77 E5        29.67S
MANASSAS*      CLOUDY    63  55  77 E6        29.66F
GAITHERSBURG*  CLOUDY    57  50  77 CALM      29.71S

$$

MDZ006>007-011-014-042000-
BALTIMORE METRO

CITY           SKY/WX    TMP DP  RH WIND       PRES   REMARKS
BWI AIRPORT    DRIZZLE   55  51  86 E8        29.68S
MD SCIENCE CTR   N/A     56  50  80 MISG      29.69R
MARTIN STATE     N/A     55  54  94 NE6       29.71F FOG
ANNAPOLIS      CLOUDY    55  52  89 N7        29.68F
FORT MEADE*    CLOUDY    54  50  87 E7        29.70F

$$

MDZ012-015-019>023-042000-
MARYLAND EASTERN SHORE

CITY           SKY/WX    TMP DP  RH WIND       PRES   REMARKS
OCEAN CITY     CLOUDY    52  50  93 NE15G22   29.66S FOG
SALISBURY      CLOUDY    55  52  89 NE7       29.66F
CAMBRIDGE*     CLOUDY    54  52  94 NE6       29.66F
EASTON*        CLOUDY   N/A N/A N/A NE7       29.71F HAZE

$$

MDZ017>025-042000-
SOUTHERN MARYLAND

CITY           SKY/WX    TMP DP  RH WIND       PRES   REMARKS
PATUXENT RIVER CLOUDY    57  52  83 NE9       29.66F
ST INIGOES     CLOUDY    60  55  83 NE9       29.65F
LEONARDTOWN*   CLOUDY    55  52  88 CALM      29.67F

$$

MDZ003>005-042000-
NORTH CENTRAL MARYLAND

CITY           SKY/WX    TMP DP  RH WIND       PRES   REMARKS
FREDERICK*     CLOUDY    55  55 100 NE5       29.70F
HAGERSTOWN APT CLOUDY    60  51  72 NE10      29.65F
WESTMINSTER*   CLOUDY    55  36  47 CALM      29.68F

$$

MDZ501>502-042000-
WESTERN MARYLAND

CITY           SKY/WX    TMP DP  RH WIND       PRES   REMARKS
OAKLAND*       CLOUDY    50  43  76 CALM      29.66F
CUMBERLAND*    MOSUNNY   64  45  48 NW6       29.68F

$$

VAZ025>031-042000-
SHENANDOAH VALLEY

CITY           SKY/WX    TMP DP  RH WIND       PRES   REMARKS
WINCHESTER*    PTSUNNY   64  54  68 E8        29.63F
FRONT ROYAL*   CLOUDY    63  55  77 E8        29.63F
LURAY*         MOCLDY    61  54  77 SE3       29.64F
NEW MARKET*    CLOUDY    63  46  54 CALM      29.63F
STAUNTON*      FAIR      66  48  52 W9        29.65F
WAYNESBORO*    FAIR      63  43  47 NW5       29.64F

$$

WVZ021-048>050-054>055-042000-
EASTERN WEST VIRGINIA PANHANDLE

CITY           SKY/WX    TMP DP  RH WIND       PRES   REMARKS
MARTINSBURG    FAIR      62  52  69 E9        29.64F
PETERSBURG*    CLOUDY    59  52  77 SE3       29.66F

$$

VAZ036>039-050-042000-
CENTRAL FOOTHILLS

CITY           SKY/WX    TMP DP  RH WIND       PRES   REMARKS
CHARLOTTESVILL PTSUNNY   66  51  58 VRB3      29.62F
CULPEPER*      CLOUDY    65  56  72 E6        29.64F
ORANGE*        FAIR      63  57  82 CALM      29.65F
GORDONSVILLE*  FAIR      65  53  65 S3        29.62F
WARRENTON*     PTSUNNY   65  51  60 E9        29.64F

$$

VAZ055>057-042000-
NORTH AND CENTRAL PIEDMONT

CITY           SKY/WX    TMP DP  RH WIND       PRES   REMARKS
FREDERICKSBRG* CLOUDY    62  58  86 CALM      29.65S
STAFFORD*      CLOUDY    62  54  76 NE6       29.69F

$$

NCZ024-NYZ072-PAZ021-071-VAZ022-071-042000-
OTHER REGIONAL OBSERVATIONS

CITY           SKY/WX    TMP DP  RH WIND       PRES   REMARKS
NEW YORK CITY  CLOUDY    49  44  83 NE12      29.76F
PHILADELPHIA   CLOUDY    53  46  77 NE9       29.71S
PITTSBURGH     PTSUNNY   62  41  46 VRB3      29.62F
ROANOKE        PTSUNNY   66  41  40 SW13G18   29.66F
RICHMOND       PTSUNNY   68  56  65 CALM      29.63F
RALEIGH        PTSUNNY   71  53  52 W7        29.64F

$$

ANZ530>537-042000-
MARINE OBSERVATIONS

STATION/POSITION TIME  TEMP    WIND        PRES
                       AIR SEA DIR/SP/G
                 (UTC) (F)     (DEG/KT/KT) (MB)
THOMAS PT LIGHT  1900   53 59   40/  8/  8 1006.2F
BALT KEY BRIDGE  1800   54      50/  7/  8 1005.2F
COVE POINT       1800   54      20/  7/ 10 1005.5F
LEWISETTA        1800   56 63  360/  7/  9 1004.5F
SOLOMONS ISLAND  1800   55 61   10/  5/  7   N/A
PINEY POINT      1800          360/  3/  4   N/A

$$





USA.gov is the U.S. government's official web portal to all federal, state and local government web resources and services.